Location: Hylvaty SDH
(49.9612°N, 16.4057°E)
Time: 19:37:23
(UTC+02:00)

Transit 4A - Pass Details

Date: 14 August 2020
Orbit: 862 x 982 km, 66.8° (Epoch: 28 September)

Event Time Altitude Azimuth Distance (km) Brightness Sun altitude
Rises 11:37:43 0° 261° (W) 3,534 10.8 50.5°
Reaches altitude 10° 11:40:37 10° 274° (W) 2,615 10.1 50.8°
Maximum altitude 11:45:43 27° 331° (NNW) 1,728 9.3 51.2°
Drops below altitude 10° 11:50:57 10° 28° (NNE) 2,692 10.2 51.6°
Sets 11:53:59 0° 40° (NE) 3,657 10.9 51.8°
